Location: Vihti�l�
(61.3833°N, 23.0667°E)
Time: 04:24:25
(UTC+00:00)

NOSS 2-3 (D) - Pass Details

Date: 29 November 2020
Orbit: 567 x 1645 km, 63.4° (Epoch: 09 January)

Event Time Altitude Azimuth Distance (km) Brightness Sun altitude
Exits shadow 03:27:43 59° 304° (NW) 980 4.2 -24.6°
Maximum altitude 03:28:44 74° 5° (N) 917 4.3 -24.4°
Drops below altitude 10° 03:35:31 10° 91° (E) 2,936 8.1 -23.6°
Sets 03:38:35 0° 94° (E) 4,073 9.2 -23.3°
